Regional Weather Roundup
Issued by NWS

Home | Current Version | Previous Version | Graphics & Text | Print | Product List | Glossary On
Versions: 1 2 3 4 5 6 7 8 9 10 11 12 13 14 15 16 17 18 19 20 21 22 23 24 25 26 27 28 29 30 31 32 33 34 35 36 37 38 39 40 41 42 43 44 45 46 47 48 49 50
000
ASUS45 KCYS 281010
RWRWY

WYOMING REGIONAL WEATHER ROUNDUP
NATIONAL WEATHER SERVICE CHEYENNE WY
300 AM MST SUN DEC 28 2014

NOTE:  "FAIR" INDICATES FEW OR NO CLOUDS BELOW 12,000 FEET
WITH NO SIGNIFICANT WEATHER AND/OR OBSTRUCTIONS TO VISIBILITY.

WYZ001-281100-
YELLOWSTONE NATIONAL PARK

CITY           SKY/WX    TMP DP  RH WIND       PRES   REMARKS
LK YELLOWSTONE   N/A     11   7  84 CALM      29.89F
W YELLOWSTONE  NOT AVBL

$$
WYZ002>013-054>058-071-098>099-281100-
NORTHERN WYOMING

CITY           SKY/WX    TMP DP  RH WIND       PRES   REMARKS
JACKSON        CLOUDY    16  16 100 SW7       29.97F VSB 1   WCI   6
CODY           FAIR      27   7  43 W13G21    29.85S WCI  16
GREYBULL       MOCLDY     1  -2  87 CALM      29.96S
WORLAND        FAIR      -4  -9  79 CALM      29.93F
SHERIDAN       MOCLDY     8   2  76 N6        29.85S WCI  -2
BUFFALO        FAIR      17   4  56 S7        29.83F WCI   8
GILLETTE       FAIR      16   5  62 S7        29.87F WCI   6
HULETT           N/A    N/A N/A N/A MISG        N/A
NEWCASTLE      FAIR       9   3  78 CALM      29.95F

$$
WYZ014>020-022>026-101>103-281100-
CENTRAL WYOMING

CITY           SKY/WX    TMP DP  RH WIND       PRES   REMARKS
BIG PINEY      LGT SNOW  -7 -11  83 CALM      30.00F FOG
PINEDALE       LGT SNOW   0  -4  85 W3        30.00S
DUBOIS         NOT AVBL
LANDER         FAIR       8  -1  66 W9        29.88R WCI  -5
RIVERTON       FAIR       0  -6  76 W8        29.89R WCI -14
CASPER         FAIR      18   8  65 SW23G29   29.90F WCI   0
DOUGLAS        FAIR      22  10  60 W18       29.91F WCI   7

$$
WYZ021-027>030-104>119-281100-
SOUTHERN WYOMING

CITY           SKY/WX    TMP DP  RH WIND       PRES   REMARKS
EVANSTON       CLOUDY    14   4  64 SW17G25   30.02F WCI  -3
FORT BRIDGER   CLOUDY    20   8  58 W24G32    30.02S WCI   3
ROCK SPRINGS   LGT SNOW  13  10  88 SW7       30.02S FOG     WCI   3
DIXON          CLOUDY    19   8  62 S13       30.09F WCI   6
RAWLINS        CLOUDY    16   7  67 SW24G30   29.97F WCI  -2
SARATOGA       CLOUDY    19   9  63 S9        29.98F WCI   9
LARAMIE        CLOUDY    14   2  58 S21       29.88F WCI  -4
CHEYENNE       FAIR      15   1  53 SW6       29.91F WCI   6
TORRINGTON     FAIR       3  -2  79 CALM      29.97S
PINE BLUFFS    FAIR      -4  -8  84 MISG      29.97F

$$


USA.gov is the U.S. government's official web portal to all federal, state and local government web resources and services.